Location: Hamayl? Da??
(36.7028°N, 30.1716°E)
Time: 00:01:14
(UTC+00:00)

Cosmos 1602 Rocket - Pass Details

Date: 04 August 2024
Orbit: 601 x 627 km, 82.5° (Epoch: 18 September)

Event Time Altitude Azimuth Distance (km) Brightness Sun altitude
Exits shadow 19:34:04 66° 356° (N) 660 3.7 -25.6°
Drops below altitude 10° 19:37:48 10° 6° (N) 1,949 6.6 -26.1°
Sets 19:40:01 0° 7° (N) 2,857 7.6 -26.3°
